Weather History for Indianapolis Mount Comfort, IN

Change the Weather History Date:

Sunday, January 26, 2014

  Actual Average (KEYE) Record (KEYE)
Temperature  
Mean Temperature 23 °F 28 °F  
Max Temperature 41 °F 36 °F 52 °F (2002)
Min Temperature 5 °F 21 °F -2 °F (2003)
Degree Days  
Heating Degree Days 42 37  
Month to date heating degree days 962  
Since 1 July heating degree days 3018  
Cooling Degree Days 0 0  
Month to date cooling degree days 0  
Year to date cooling degree days 0  
Moisture  
Dew Point 15 °F    
Average Humidity 65    
Maximum Humidity 86    
Minimum Humidity 51    
Precipitation  
Precipitation 0.00 in 0.04 in 0.67 in (2012)
Month to date precipitation 2.04  
Year to date precipitation 2.04  
Sea Level Pressure  
Sea Level Pressure 29.63 in    
Wind  
Wind Speed 10 mph (SW)    
Max Wind Speed 28 mph    
Max Gust Speed 51 mph    
Visibility 10 miles    
Events      
T = Trace of Precipitation, MM = Missing Value Source: NWS Daily Summary

Daily Weather History Graph

Daily Weather History Graph

Search for Another Location

Airport:

Trip Planner

Search our weather history database for the weather conditions in past years. The results will help you decide how hot, cold, wet, or windy it might be!

Date:

Astronomy

Jan. 26, 2014 Rise Set
Actual Time 7:56 AM EST 5:55 PM EST
Civil Twilight 7:27 AM EST 6:24 PM EST
Nautical Twilight 6:55 AM EST 6:57 PM EST
Astronomical Twilight 6:23 AM EST 7:29 PM EST
Moon 3:33 AM EST (1/26) 1:44 PM EST (1/26)
Length of Visible Light 10h 57m
Length of Day
9h 59m
Waning Crescent, 24% of the Moon is Illuminated
Jan 26
Waning Crescent
Jan 30
New
Feb 6
First Quarter
Feb 14
Full
Feb 22
Last Quarter

Hourly Weather History & Observations

Time (EST) Temp. Windchill Dew Point Humidity Pressure Visibility Wind Dir Wind Speed Gust Speed Precip Events Conditions
12:14 AM 6.8 °F -4.8 °F -2.2 °F 67% 29.90 in 10.0 mi West 6.9 mph - N/A   Clear
12:34 AM 5.0 °F -5.6 °F -4.0 °F 66% 29.89 in 10.0 mi West 5.8 mph - N/A   Clear
12:55 AM 6.8 °F -2.0 °F -2.2 °F 67% 29.87 in 10.0 mi SW 4.6 mph - N/A   Clear
1:14 AM 6.8 °F -3.5 °F -2.2 °F 67% 29.87 in 10.0 mi WSW 5.8 mph - N/A   Clear
1:34 AM 5.0 °F -2.1 °F -2.2 °F 72% 29.88 in 10.0 mi SW 3.5 mph - N/A   Clear
1:55 AM 5.0 °F -5.6 °F -2.2 °F 72% 29.88 in 10.0 mi SSW 5.8 mph - N/A   Clear
2:14 AM 6.8 °F -3.5 °F -0.4 °F 72% 29.87 in 10.0 mi SSW 5.8 mph - N/A   Clear
2:34 AM 6.8 °F -2.0 °F -0.4 °F 72% 29.87 in 10.0 mi SSW 4.6 mph - N/A   Clear
2:55 AM 8.6 °F 0.1 °F -0.4 °F 67% 29.86 in 10.0 mi South 4.6 mph - N/A   Clear
3:14 AM 8.6 °F -1.3 °F -0.4 °F 67% 29.84 in 10.0 mi South 5.8 mph - N/A   Clear
3:34 AM 8.6 °F -1.3 °F 1.4 °F 73% 29.82 in 10.0 mi South 5.8 mph - N/A   Clear
3:55 AM 10.4 °F 0.8 °F 1.4 °F 67% 29.81 in 10.0 mi South 5.8 mph - N/A   Clear
4:14 AM 10.4 °F -0.4 °F 1.4 °F 67% 29.78 in 10.0 mi South 6.9 mph - N/A   Clear
4:34 AM 10.4 °F -1.5 °F 1.4 °F 67% 29.76 in 10.0 mi South 8.1 mph - N/A   Clear
4:54 AM 12.2 °F 0.7 °F 1.4 °F 62% 29.75 in 10.0 mi South 8.1 mph - N/A   Clear
5:14 AM 12.2 °F 0.7 °F 1.4 °F 62% 29.74 in 10.0 mi South 8.1 mph - N/A   Clear
5:35 AM 12.2 °F -0.2 °F 1.4 °F 62% 29.72 in 10.0 mi South 9.2 mph - N/A   Clear
5:54 AM 12.2 °F -2.5 °F 1.4 °F 62% 29.70 in 10.0 mi South 12.7 mph 17.3 mph N/A   Scattered Clouds
6:14 AM 12.2 °F -3.7 °F 3.2 °F 67% 29.69 in 7.0 mi South 15.0 mph 19.6 mph N/A   Mostly Cloudy
6:35 AM 14.0 °F -0.2 °F 3.2 °F 62% 29.63 in 7.0 mi SSE 12.7 mph - N/A   Mostly Cloudy
6:54 AM 14.0 °F 2.0 °F 3.2 °F 62% 29.65 in 10.0 mi South 9.2 mph 19.6 mph N/A   Scattered Clouds
7:14 AM 14.0 °F 0.5 °F 3.2 °F 62% 29.64 in 10.0 mi SSE 11.5 mph 16.1 mph N/A   Scattered Clouds
7:35 AM 14.0 °F 0.5 °F 3.2 °F 62% 29.63 in 10.0 mi SSE 11.5 mph - N/A   Mostly Cloudy
7:54 AM 14.0 °F -0.2 °F 3.2 °F 62% 29.62 in 7.0 mi SSE 12.7 mph 18.4 mph N/A   Mostly Cloudy
8:14 AM 15.8 °F 3.4 °F 5.0 °F 62% 29.62 in 10.0 mi South 10.4 mph - N/A   Scattered Clouds
8:35 AM 15.8 °F 3.4 °F 5.0 °F 62% 29.61 in 10.0 mi South 10.4 mph - N/A   Scattered Clouds
8:54 AM 17.6 °F 5.7 °F 5.0 °F 58% 29.62 in 10.0 mi South 10.4 mph 16.1 mph N/A   Scattered Clouds
9:14 AM 17.6 °F 5.0 °F 6.8 °F 63% 29.62 in 10.0 mi South 11.5 mph 18.4 mph N/A   Scattered Clouds
9:35 AM 17.6 °F 5.0 °F 6.8 °F 63% 29.59 in 10.0 mi South 11.5 mph - N/A   Scattered Clouds
9:54 AM 19.4 °F 6.0 °F 6.8 °F 58% 29.59 in 10.0 mi South 13.8 mph - N/A   Scattered Clouds
10:14 AM 21.2 °F 8.9 °F 8.6 °F 58% 29.58 in 10.0 mi South 12.7 mph 16.1 mph N/A   Scattered Clouds
10:35 AM 21.2 °F 8.3 °F 8.6 °F 58% 29.57 in 10.0 mi South 13.8 mph - N/A   Mostly Cloudy
10:54 AM 23.0 °F 11.1 °F 10.4 °F 59% 29.56 in 10.0 mi SSW 12.7 mph - N/A   Overcast
11:14 AM 24.8 °F 12.9 °F 10.4 °F 54% 29.56 in 10.0 mi SSW 13.8 mph 23.0 mph N/A   Overcast
11:35 AM 28.4 °F 16.6 °F 12.2 °F 51% 29.54 in 10.0 mi SSW 16.1 mph 23.0 mph N/A   Mostly Cloudy
11:54 AM 28.4 °F 18.5 °F 14.0 °F 55% 29.54 in 10.0 mi SSW 11.5 mph 20.7 mph N/A   Mostly Cloudy
12:15 PM 32.0 °F 20.1 °F 15.8 °F 51% 29.53 in 10.0 mi SW 19.6 mph 26.5 mph N/A   Mostly Cloudy
12:34 PM 33.8 °F 22.8 °F 17.6 °F 52% 29.53 in 10.0 mi SW 18.4 mph 26.5 mph N/A   Mostly Cloudy
12:54 PM 35.6 °F 25.5 °F 19.4 °F 52% 29.53 in 10.0 mi SW 17.3 mph 25.3 mph N/A   Scattered Clouds
1:15 PM 35.6 °F 25.5 °F 21.2 °F 56% 29.54 in 10.0 mi WSW 17.3 mph 28.8 mph N/A   Mostly Cloudy
1:34 PM 37.4 °F 27.2 °F 23.0 °F 56% 29.54 in 10.0 mi WSW 19.6 mph 28.8 mph N/A   Overcast
1:54 PM 37.4 °F 27.8 °F 23.0 °F 56% 29.53 in 10.0 mi WSW 17.3 mph 27.6 mph N/A   Overcast
2:15 PM 37.4 °F 28.5 °F 24.8 °F 60% 29.52 in 10.0 mi WSW 15.0 mph 25.3 mph N/A   Overcast
2:34 PM 37.4 °F 28.2 °F 24.8 °F 60% 29.52 in 10.0 mi WSW 16.1 mph 21.9 mph N/A   Mostly Cloudy
2:54 PM 39.2 °F 31.6 °F 26.6 °F 61% 29.52 in 10.0 mi WSW 12.7 mph - N/A   Overcast
3:15 PM 39.2 °F 29.8 °F 28.4 °F 65% 29.52 in 10.0 mi WSW 18.4 mph - N/A   Overcast
3:34 PM 39.2 °F 31.6 °F 28.4 °F 65% 29.53 in 10.0 mi WSW 12.7 mph 20.7 mph N/A   Mostly Cloudy
3:54 PM 39.2 °F 31.6 °F 28.4 °F 65% 29.52 in 10.0 mi WSW 12.7 mph 17.3 mph N/A   Mostly Cloudy
4:15 PM 39.2 °F 30.8 °F 28.4 °F 65% 29.53 in 10.0 mi WSW 15.0 mph 21.9 mph N/A   Mostly Cloudy
4:34 PM 41.0 °F 33.5 °F 28.4 °F 61% 29.54 in 10.0 mi WSW 13.8 mph 25.3 mph N/A   Mostly Cloudy
4:54 PM 41.0 °F 31.9 °F 28.4 °F 61% 29.55 in 10.0 mi WSW 19.6 mph 25.3 mph N/A   Mostly Cloudy
5:15 PM 41.0 °F 33.1 °F 30.2 °F 65% 29.55 in 10.0 mi WSW 15.0 mph 26.5 mph N/A   Scattered Clouds
5:34 PM 39.2 °F 30.8 °F 30.2 °F 70% 29.56 in 10.0 mi WSW 15.0 mph 24.2 mph N/A   Clear
5:54 PM 39.2 °F 31.6 °F 30.2 °F 70% 29.57 in 10.0 mi WSW 12.7 mph - N/A   Clear
6:15 PM 39.2 °F 33.0 °F 30.2 °F 70% 29.58 in 10.0 mi WSW 9.2 mph - N/A   Scattered Clouds
6:34 PM 39.2 °F 33.6 °F 30.2 °F 70% 29.58 in 10.0 mi SW 8.1 mph - N/A   Scattered Clouds
6:54 PM 39.2 °F 33.6 °F 30.2 °F 70% 29.58 in 10.0 mi SW 8.1 mph - N/A   Mostly Cloudy
7:15 PM 39.2 °F 34.2 °F 30.2 °F 70% 29.59 in 10.0 mi SW 6.9 mph - N/A   Mostly Cloudy
7:34 PM 37.4 °F 32.1 °F 30.2 °F 75% 29.58 in 10.0 mi SSW 6.9 mph - N/A   Mostly Cloudy
7:54 PM 39.2 °F 33.0 °F 30.2 °F 70% 29.58 in 10.0 mi SW 9.2 mph - N/A   Scattered Clouds
8:14 PM 39.2 °F 32.0 °F 32.0 °F 75% 29.57 in 10.0 mi SW 11.5 mph - N/A   Scattered Clouds
8:34 PM 39.2 °F 31.6 °F 32.0 °F 75% 29.56 in 10.0 mi SW 12.7 mph 18.4 mph N/A   Scattered Clouds
8:55 PM 39.2 °F 32.0 °F 32.0 °F 75% 29.55 in 10.0 mi SW 11.5 mph 18.4 mph N/A   Clear
9:14 PM 41.0 °F 34.3 °F 30.2 °F 65% 29.54 in 10.0 mi SW 11.5 mph - N/A   Clear
9:34 PM 39.2 °F 32.5 °F 30.2 °F 70% 29.54 in 10.0 mi SSW 10.4 mph 16.1 mph N/A   Clear
9:55 PM 39.2 °F 32.0 °F 30.2 °F 70% 29.54 in 10.0 mi SW 11.5 mph 16.1 mph N/A   Clear
10:14 PM 39.2 °F 31.6 °F 30.2 °F 70% 29.53 in 10.0 mi SSW 12.7 mph - N/A   Clear
10:34 PM 41.0 °F 33.5 °F 30.2 °F 65% 29.53 in 10.0 mi SW 13.8 mph - N/A   Clear
10:55 PM 41.0 °F 33.1 °F 30.2 °F 65% 29.54 in 10.0 mi SW 15.0 mph 21.9 mph N/A   Clear
11:14 PM 41.0 °F 32.8 °F 30.2 °F 65% 29.54 in 10.0 mi SW 16.1 mph 24.2 mph N/A   Clear
11:34 PM 39.2 °F 27.8 °F 30.2 °F 70% 29.61 in 10.0 mi NW 27.6 mph 50.6 mph N/A   Mostly Cloudy
11:55 PM 28.4 °F 13.5 °F 24.8 °F 86% 29.67 in 3.0 mi NW 26.5 mph 39.1 mph N/A   Overcast